period_start,C,m1,H,J0,J1,J2,J3,J4,J5,JA,JB,JC,JD,JJ,JK,JN,#
2017-05-15 00:02:03,0.03,2.02,0.00,22.38,26.40,30.22,14.47,49.35,1004.40,2033.00,2712.58,2585.93,2932.89,599.79,589.90,32.98,0000 0000 0000 0000 000000
2017-05-15 00:07:05,0.05,2.03,0.00,22.36,26.40,30.20,14.47,49.18,1004.41,2033.00,2711.87,2585.19,2932.07,600.06,590.27,33.03,0000 0000 0000 0000 000000
2017-05-15 00:12:06,0.03,2.03,0.00,22.37,26.40,30.20,14.38,49.04,1004.43,2033.00,2711.02,2584.99,2931.47,599.76,589.98,33.08,0000 0000 0000 0000 000000
2017-05-15 00:17:07,0.05,2.03,0.00,22.40,26.40,30.25,14.42,49.23,1004.56,2033.00,2710.14,2584.39,2930.95,600.24,590.40,33.13,0000 0000 0000 0000 000000
2017-05-15 00:22:08,0.04,2.03,0.00,22.38,26.40,30.29,14.53,49.17,1004.78,2033.00,2709.50,2584.01,2930.15,600.24,590.45,33.18,0000 0000 0000 0000 000000
2017-05-15 00:27:10,0.01,2.03,0.00,22.39,26.40,30.27,14.43,49.17,1004.89,2033.00,2708.87,2583.96,2929.82,600.03,590.45,33.23,0000 0000 0000 0000 000000
2017-05-15 00:32:11,0.03,2.04,0.00,22.41,26.42,30.32,14.40,49.15,1004.90,2033.00,2708.09,2583.72,2929.16,599.77,590.11,33.28,0000 0000 0000 0000 000000
2017-05-15 00:37:12,0.04,2.04,0.00,22.43,26.42,30.23,14.48,49.03,1004.90,2033.00,2707.52,2583.04,2928.79,600.30,590.61,33.33,0000 0000 0000 0000 000000
2017-05-15 00:42:14,0.02,2.04,0.00,22.47,26.42,30.29,14.47,49.05,1004.93,2033.00,2706.98,2582.94,2928.06,599.90,590.13,33.38,0000 0000 0000 0000 000000
2017-05-15 00:47:15,0.04,2.04,0.00,22.48,26.42,30.33,14.48,49.16,1004.98,2033.00,2706.34,2582.53,2927.82,600.11,590.32,33.43,0000 0000 0000 0000 000000
2017-05-15 00:52:17,0.04,2.04,0.00,22.48,26.44,30.36,14.41,49.20,1005.21,2033.00,2705.66,2582.01,2926.99,599.84,590.39,33.48,0000 0000 0000 0000 000000
2017-05-15 00:57:18,0.06,2.05,0.00,22.50,26.45,30.36,14.46,49.29,1005.33,2033.00,2704.73,2581.18,2926.10,600.04,590.46,33.53,0000 0000 0000 0000 000000
2017-05-15 01:02:19,0.03,2.05,0.00,22.53,26.45,30.34,14.42,49.14,1005.38,2032.99,2703.88,2580.92,2925.23,599.63,590.02,33.58,0000 0000 0000 0000 000000
2017-05-15 01:07:21,0.06,2.05,0.00,22.53,26.47,30.34,14.42,49.17,1005.39,2032.98,2703.04,2580.15,2924.70,600.21,590.51,33.63,0000 0000 0000 0000 000000
2017-05-15 01:12:22,0.03,2.05,0.00,22.54,26.47,30.35,14.44,49.13,1005.39,2032.98,2702.27,2579.92,2924.01,600.14,590.44,33.68,0000 0000 0000 0000 000000
2017-05-15 01:17:23,0.06,2.06,0.00,22.57,26.47,30.39,14.42,49.18,1005.39,2032.97,2701.50,2579.17,2923.23,599.54,589.85,33.73,0000 0000 0000 0000 000000
2017-05-15 01:22:25,0.03,2.06,0.00,22.59,26.50,30.41,14.46,49.13,1005.41,2032.97,2700.80,2578.86,2922.39,600.00,590.28,33.79,0000 0000 0000 0000 000000
2017-05-15 01:27:26,0.05,2.06,0.00,22.57,26.50,30.42,14.43,49.10,1005.42,2032.96,2700.04,2578.09,2921.93,599.89,590.15,33.84,0000 0000 0000 0000 000000
2017-05-15 01:32:27,0.04,2.06,0.00,22.60,26.51,30.42,14.45,49.28,1005.42,2032.89,2699.36,2577.78,2921.14,599.75,590.03,33.89,0000 0000 0000 0000 000000
2017-05-15 01:37:28,0.04,2.07,0.00,22.60,26.52,30.43,14.43,49.23,1005.59,2032.75,2698.51,2577.03,2920.33,599.89,590.24,33.94,0000 0000 0000 0000 000000
2017-05-15 01:42:30,0.03,2.07,0.00,22.62,26.52,30.48,14.41,49.13,1005.84,2032.63,2697.89,2576.43,2919.68,599.81,590.29,33.99,0000 0000 0000 0000 000000
2017-05-15 01:47:31,0.04,2.07,0.00,22.76,26.55,30.46,14.35,49.23,1005.86,2032.52,2697.05,2575.79,2918.93,599.72,589.92,34.04,0000 0000 0000 0000 000000
2017-05-15 01:52:32,0.02,2.07,0.00,23.06,26.57,30.37,14.42,49.25,1005.87,2032.13,2696.16,2575.03,2918.08,600.01,589.58,34.09,0000 0000 0000 0000 000000
2017-05-15 01:57:34,0.06,2.07,0.00,23.19,26.59,30.31,14.36,49.20,1005.88,2032.07,2695.51,2574.46,2917.36,599.92,589.29,34.14,0000 0000 0000 0000 000000
2017-05-15 02:02:35,0.05,2.08,0.00,23.47,26.63,30.34,14.27,49.12,1005.89,2032.01,2694.52,2573.83,2916.37,599.68,588.59,34.19,0000 0000 0000 0000 000000
2017-05-15 02:07:36,0.04,2.08,0.00,23.61,26.66,30.39,14.37,49.16,1005.88,2032.00,2693.83,2573.05,2915.74,600.52,588.93,34.24,0000 0000 0000 0000 000000
2017-05-15 02:12:37,0.03,2.08,0.00,23.70,26.70,30.42,14.40,49.19,1005.90,2032.00,2693.04,2572.81,2915.02,599.88,588.18,34.29,0000 0000 0000 0000 000000
2017-05-15 02:17:39,0.06,2.08,0.00,23.49,26.72,30.42,14.35,49.27,1005.89,2032.00,2692.42,2572.06,2914.28,599.98,588.76,34.34,0000 0000 0000 0000 000000
2017-05-15 02:22:40,0.01,2.08,0.00,23.08,26.74,30.45,14.40,49.33,1005.91,2031.98,2691.87,2571.94,2913.95,599.92,589.46,34.39,0000 0000 0000 0000 000000
2017-05-15 02:27:41,0.06,2.09,0.00,22.95,26.75,30.59,14.30,49.21,1005.93,2031.97,2691.06,2571.18,2913.17,599.54,589.49,34.44,0000 0000 0000 0000 000000
2017-05-15 02:32:43,0.04,2.09,0.00,22.85,26.74,30.51,14.37,49.23,1006.20,2031.96,2690.17,2570.95,2912.36,600.03,590.03,34.49,0000 0000 0000 0000 000000
2017-05-15 02:37:44,0.02,2.09,0.00,22.76,26.72,30.48,14.38,49.17,1006.33,2031.87,2689.74,2570.30,2912.00,599.94,590.46,34.54,0000 0000 0000 0000 000000
2017-05-15 02:42:45,0.03,2.09,0.00,22.76,26.72,30.43,14.45,49.30,1006.36,2031.92,2689.05,2570.01,2911.73,600.04,590.56,34.59,0000 0000 0000 0000 000000
2017-05-15 02:47:47,0.03,2.09,0.00,22.75,26.70,30.39,14.42,49.37,1006.36,2031.96,2688.62,2569.96,2911.05,599.73,590.30,34.64,0000 0000 0000 0000 000000
2017-05-15 02:52:48,0.05,2.10,0.00,22.74,26.69,30.37,14.40,49.41,1006.36,2031.96,2687.98,2569.25,2910.46,599.81,590.38,34.69,0000 0000 0000 0000 000000
2017-05-15 02:57:49,0.03,2.10,0.00,22.74,26.67,30.38,14.44,49.27,1006.37,2031.99,2687.17,2568.98,2909.85,600.24,590.71,34.75,0000 0000 0000 0000 000000
2017-05-15 03:02:51,0.06,2.10,0.00,22.77,26.67,30.39,14.39,49.20,1006.37,2031.99,2686.59,2568.39,2909.14,599.82,590.25,34.80,0000 0000 0000 0000 000000
2017-05-15 03:07:52,0.02,2.10,0.00,22.77,26.65,30.39,14.38,49.27,1006.36,2031.99,2686.00,2568.00,2908.67,599.82,590.28,34.85,0000 0000 0000 0000 000000
2017-05-15 03:12:53,0.06,2.11,0.00,22.79,26.65,30.42,14.52,49.33,1006.37,2031.99,2685.32,2567.47,2907.84,600.48,590.94,34.90,0000 0000 0000 0000 000000
2017-05-15 03:17:54,0.04,2.11,0.00,22.83,26.65,30.41,14.42,49.37,1006.41,2031.99,2684.65,2566.87,2907.03,599.46,590.01,34.95,0000 0000 0000 0000 000000
2017-05-15 03:22:56,0.05,2.11,0.00,23.06,26.65,30.42,14.40,49.42,1006.37,2031.99,2684.02,2566.09,2906.19,599.82,589.66,35.00,0000 0000 0000 0000 000000
2017-05-15 03:27:57,0.03,2.11,0.00,23.23,26.67,30.32,14.38,49.17,1006.48,2031.99,2683.53,2565.80,2905.74,600.19,589.78,35.05,0000 0000 0000 0000 000000
2017-05-15 03:32:58,0.03,2.12,0.00,23.27,26.69,30.29,14.36,49.34,1006.74,2031.99,2682.96,2565.10,2905.03,600.48,590.25,35.10,0000 0000 0000 0000 000000
2017-05-15 03:38:00,0.02,2.12,0.00,23.61,26.72,30.34,14.37,49.33,1006.81,2031.99,2682.39,2565.05,2904.98,600.10,589.17,35.15,0000 0000 0000 0000 000000
2017-05-15 03:43:01,0.04,2.12,0.00,23.73,26.75,30.39,14.39,49.29,1006.76,2031.94,2681.70,2564.70,2904.20,600.30,589.15,35.20,0000 0000 0000 0000 000000
2017-05-15 03:48:02,0.04,2.12,0.00,23.48,26.77,30.40,14.42,49.33,1006.84,2031.87,2680.90,2564.00,2903.42,599.93,589.19,35.25,0000 0000 0000 0000 000000
2017-05-15 03:53:04,0.04,2.12,0.00,23.16,26.77,30.47,14.37,49.34,1006.85,2031.47,2679.65,2562.88,2902.14,599.73,589.72,35.30,0000 0000 0000 0000 000000
2017-05-15 03:58:05,0.05,2.13,0.00,23.08,26.77,30.62,14.44,49.37,1006.84,2031.29,2678.38,2562.29,2901.17,599.92,590.09,35.35,0000 0000 0000 0000 000000
2017-05-15 04:03:06,0.10,2.13,0.00,23.00,26.77,30.55,14.46,49.33,1006.86,2031.40,2677.39,2561.31,2900.03,600.20,590.22,35.40,0000 0000 0000 0000 000000
2017-05-15 04:08:07,0.07,2.13,0.00,22.95,26.77,30.48,14.46,49.47,1006.86,2031.43,2676.42,2560.34,2898.98,600.19,590.75,35.45,0000 0000 0000 0000 000000
2017-05-15 04:13:09,0.03,2.14,0.00,22.93,26.76,30.47,14.39,49.58,1006.86,2031.34,2675.46,2559.74,2898.10,599.56,590.16,35.50,0000 0000 0000 0000 000000
2017-05-15 04:18:10,0.04,2.14,0.00,22.91,26.75,30.45,14.40,49.50,1006.99,2031.29,2674.86,2559.03,2897.55,599.73,590.36,35.55,0000 0000 0000 0000 000000
2017-05-15 04:23:11,0.03,2.14,0.00,22.90,26.75,30.44,14.46,49.46,1007.19,2031.20,2674.02,2558.83,2896.68,600.47,591.09,35.61,0000 0000 0000 0000 000000
2017-05-15 04:28:12,0.05,2.14,0.00,23.24,26.75,30.43,14.41,49.50,1007.33,2031.25,2673.38,2558.12,2896.04,599.80,589.99,35.66,0000 0000 0000 0000 000000
2017-05-15 04:33:13,0.01,2.14,0.00,23.27,26.75,30.35,14.38,49.44,1007.34,2031.14,2672.97,2557.89,2895.33,600.07,590.13,35.71,0000 0000 0000 0000 000000
2017-05-15 04:38:15,0.05,2.15,0.00,23.43,26.77,30.33,14.34,49.35,1007.39,2031.11,2672.20,2557.16,2894.96,599.73,589.47,35.76,0000 0000 0000 0000 000000
2017-05-15 04:43:16,0.02,2.15,0.00,23.24,26.77,30.41,14.41,49.35,1007.45,2031.05,2671.81,2556.99,2894.20,599.91,590.06,35.81,0000 0000 0000 0000 000000
2017-05-15 04:48:17,0.03,2.15,0.00,23.10,26.78,30.63,14.33,49.23,1007.57,2031.06,2671.03,2556.65,2893.85,599.80,590.31,35.86,0000 0000 0000 0000 000000
2017-05-15 04:53:18,0.05,2.15,0.00,23.04,26.78,30.58,14.39,49.37,1007.71,2031.02,2670.18,2556.04,2893.07,600.01,590.67,35.91,0000 0000 0000 0000 000000
2017-05-15 04:58:20,0.01,2.15,0.00,22.99,26.77,30.54,14.40,49.50,1007.79,2031.04,2669.80,2556.00,2892.92,599.67,590.49,35.96,0000 0000 0000 0000 000000
2017-05-15 05:03:21,0.03,2.15,0.00,22.98,26.77,30.49,14.41,49.41,1007.83,2031.02,2669.05,2555.92,2892.25,599.78,590.68,36.01,0000 0000 0000 0000 000000
2017-05-15 05:08:23,0.04,2.16,0.00,22.97,26.77,30.51,14.49,49.47,1007.83,2031.04,2668.58,2555.28,2891.99,600.14,590.90,36.06,0000 0000 0000 0000 000000
2017-05-15 05:13:24,0.03,2.16,0.00,23.29,26.77,30.45,14.40,49.44,1007.83,2031.07,2668.00,2555.00,2891.48,600.15,590.48,36.11,0000 0000 0000 0000 000000
2017-05-15 05:18:26,0.04,2.16,0.00,23.28,26.77,30.39,14.36,49.51,1007.83,2031.07,2667.34,2554.63,2890.88,599.76,590.15,36.16,0000 0000 0000 0000 000000
2017-05-15 05:23:27,0.04,2.16,0.00,23.45,26.79,30.35,14.38,49.55,1007.83,2031.03,2666.63,2554.03,2890.08,599.80,589.94,36.21,0000 0000 0000 0000 000000
2017-05-15 05:28:28,0.04,2.16,0.00,23.17,26.80,30.52,14.49,49.71,1007.87,2031.00,2665.95,2553.66,2889.36,599.88,590.39,36.26,0000 0000 0000 0000 000000
2017-05-15 05:33:29,0.03,2.17,0.00,23.00,26.80,30.65,14.43,49.48,1008.10,2031.01,2665.11,2553.06,2889.00,599.83,590.85,36.31,0000 0000 0000 0000 000000
2017-05-15 05:38:30,0.03,2.17,0.00,22.93,26.80,30.53,14.43,49.31,1008.27,2031.01,2664.54,2553.00,2888.50,599.95,591.22,36.36,0000 0000 0000 0000 000000
2017-05-15 05:43:32,0.01,2.17,0.00,22.94,26.78,30.48,14.39,49.29,1008.31,2031.00,2664.00,2552.89,2888.01,599.95,591.24,36.41,0000 0000 0000 0000 000000
2017-05-15 05:48:33,0.04,2.17,0.00,22.90,26.77,30.45,14.42,49.52,1008.32,2031.01,2663.50,2552.41,2887.90,599.79,591.12,36.46,0000 0000 0000 0000 000000
2017-05-15 05:53:34,0.02,2.17,0.00,22.85,26.76,30.42,14.50,49.52,1008.38,2031.03,2662.95,2552.01,2887.17,599.74,591.25,36.51,0000 0000 0000 0000 000000
2017-05-15 05:58:35,0.01,2.17,0.00,22.87,26.75,30.41,14.43,49.36,1008.66,2031.01,2662.18,2552.00,2886.99,599.98,591.65,36.57,0000 0000 0000 0000 000000
2017-05-15 06:03:37,0.02,2.18,0.00,22.85,26.74,30.44,14.47,49.80,1008.79,2031.03,2661.79,2551.94,2886.47,599.89,591.59,36.62,0000 0000 0000 0000 000000
2017-05-15 06:08:38,0.04,2.18,0.00,22.82,26.72,30.40,14.43,49.56,1008.80,2031.05,2661.04,2551.43,2886.01,600.11,591.85,36.67,0000 0000 0000 0000 000000
2017-05-15 06:13:39,0.03,2.18,0.00,22.83,26.72,30.45,14.51,49.63,1008.82,2031.09,2660.46,2551.02,2885.77,599.69,591.51,36.72,0000 0000 0000 0000 000000
2017-05-15 06:18:40,0.03,2.18,0.00,22.90,26.72,30.46,14.47,49.58,1008.95,2031.20,2659.98,2550.99,2885.08,599.85,591.60,36.77,0000 0000 0000 0000 000000
2017-05-15 06:23:42,0.04,2.18,0.00,23.22,26.72,30.43,14.48,49.32,1009.25,2031.28,2659.42,2550.70,2884.90,600.34,591.67,36.82,0000 0000 0000 0000 000000
2017-05-15 06:28:43,0.03,2.19,0.00,23.26,26.74,30.35,14.44,49.57,1009.28,2031.15,2658.87,2550.04,2884.13,599.74,591.02,36.87,0000 0000 0000 0000 000000
2017-05-15 06:33:45,0.02,2.19,0.00,23.59,26.76,30.32,14.37,49.38,1009.29,2031.11,2658.10,2550.00,2883.96,599.76,590.26,36.92,0000 0000 0000 0000 000000
2017-05-15 06:38:46,0.04,2.19,0.00,23.52,26.77,30.37,14.38,49.45,1009.29,2031.05,2657.68,2549.60,2883.19,599.63,590.26,36.97,0000 0000 0000 0000 000000
2017-05-15 06:43:47,0.02,2.19,0.00,23.14,26.79,30.45,14.42,49.33,1009.29,2031.04,2656.98,2549.04,2882.95,600.06,591.53,37.02,0000 0000 0000 0000 000000
2017-05-15 06:48:49,0.03,2.19,0.00,22.95,26.79,30.62,14.54,49.41,1009.30,2031.04,2656.14,2549.00,2882.21,600.19,592.01,37.07,0000 0000 0000 0000 000000
2017-05-15 06:53:50,0.02,2.19,0.00,22.87,26.78,30.54,14.51,49.46,1009.29,2031.03,2655.68,2548.82,2881.98,600.15,592.15,37.12,0000 0000 0000 0000 000000
2017-05-15 06:58:51,0.05,2.20,0.00,22.81,26.77,30.48,14.48,49.44,1009.31,2031.04,2654.97,2548.16,2881.32,599.93,592.06,37.17,0000 0000 0000 0000 000000
2017-05-15 07:03:52,0.02,2.20,0.00,22.80,26.76,30.47,14.52,49.73,1009.29,2031.04,2654.17,2548.00,2881.00,600.07,592.21,37.22,0000 0000 0000 0000 000000
2017-05-15 07:08:53,0.02,2.20,0.00,22.76,26.75,30.45,14.52,49.73,1009.31,2031.06,2653.86,2547.97,2880.55,599.90,592.13,37.27,0000 0000 0000 0000 000000
2017-05-15 07:13:54,0.04,2.20,0.00,22.77,26.73,30.45,14.54,49.68,1009.40,2031.12,2653.07,2547.67,2880.02,600.18,592.47,37.32,0000 0000 0000 0000 000000
2017-05-15 07:18:56,0.03,2.20,0.00,22.75,26.72,30.42,14.44,49.31,1009.71,2031.15,2652.61,2547.08,2879.92,599.70,592.35,37.37,0000 0000 0000 0000 000000
2017-05-15 07:23:57,0.05,2.20,0.00,22.76,26.71,30.42,14.50,49.42,1009.75,2031.35,2652.01,2547.00,2879.22,600.11,592.35,37.42,0000 0000 0000 0000 000000
2017-05-15 07:28:58,0.04,2.21,0.00,22.77,26.70,30.44,14.49,49.65,1009.72,2031.57,2651.59,2547.00,2879.00,600.24,592.71,37.48,0000 0000 0000 0000 000000
2017-05-15 07:34:00,0.00,2.21,0.00,22.77,26.70,30.40,14.49,49.46,1009.78,2031.50,2650.99,2546.78,2878.92,599.96,592.47,37.53,0000 0000 0000 0000 000000
2017-05-15 07:39:01,0.08,2.21,0.00,22.78,26.68,30.40,14.54,49.57,1009.78,2031.68,2650.22,2546.17,2878.22,600.21,592.76,37.58,0000 0000 0000 0000 000000
2017-05-15 07:44:02,0.02,2.21,0.00,22.94,26.68,30.42,14.48,49.62,1009.79,2031.88,2649.92,2546.01,2877.99,600.16,592.39,37.63,0000 0000 0000 0000 000000
2017-05-15 07:49:03,0.02,2.21,0.00,23.16,26.70,30.36,14.46,49.42,1009.79,2031.90,2649.14,2546.00,2877.59,599.83,591.55,37.68,0000 0000 0000 0000 000000
2017-05-15 07:54:05,0.02,2.21,0.00,23.29,26.71,30.36,14.35,49.52,1009.80,2031.71,2648.68,2545.58,2877.01,599.68,591.16,37.73,0000 0000 0000 0000 000000
2017-05-15 07:59:06,0.02,2.22,0.00,23.19,26.72,30.42,14.50,49.49,1009.79,2031.60,2648.00,2545.03,2876.46,600.32,592.01,37.78,0000 0000 0000 0000 000000
2017-05-15 08:04:08,-0.00,2.22,0.00,22.92,26.73,30.62,14.37,49.50,1009.80,2031.29,2647.19,2544.96,2875.99,599.67,591.94,37.83,0000 0000 0000 0000 000000
2017-05-15 08:09:09,0.06,2.22,0.00,22.83,26.73,30.58,14.52,49.50,1009.95,2031.21,2646.46,2544.39,2875.31,599.88,592.29,37.88,0000 0000 0000 0000 000000
2017-05-15 08:14:11,0.01,2.22,0.00,22.75,26.72,30.50,14.48,49.52,1010.21,2031.25,2645.97,2544.03,2875.00,600.07,592.87,37.93,0000 0000 0000 0000 000000
2017-05-15 08:19:12,0.04,2.22,0.00,22.73,26.72,30.46,14.51,49.57,1010.27,2031.37,2645.26,2544.00,2874.68,600.46,593.26,37.98,0000 0000 0000 0000 000000
2017-05-15 08:24:14,0.01,2.22,0.00,22.68,26.70,30.35,14.56,49.77,1010.26,2031.19,2644.74,2543.94,2874.03,600.19,593.30,38.03,0000 0000 0000 0000 000000
2017-05-15 08:29:15,0.06,2.23,0.00,22.65,26.69,30.30,14.44,49.52,1010.27,2031.43,2644.03,2543.57,2873.90,599.84,592.93,38.08,0000 0000 0000 0000 000000
2017-05-15 08:34:16,0.07,2.23,0.00,22.64,26.67,30.23,14.56,49.73,1010.30,2031.73,2643.62,2543.08,2873.21,600.18,593.21,38.13,0000 0000 0000 0000 000000
2017-05-15 08:39:18,0.00,2.23,0.00,22.63,26.67,30.24,14.52,49.58,1010.48,2031.83,2643.02,2543.00,2873.00,600.21,593.18,38.18,0000 0000 0000 0000 000000
2017-05-15 08:44:19,0.04,2.23,0.00,22.62,26.65,30.28,14.53,49.48,1010.71,2031.90,2642.41,2542.94,2872.68,600.00,593.34,38.23,0000 0000 0000 0000 000000
2017-05-15 08:49:20,0.03,2.23,0.00,22.61,26.64,30.26,14.52,49.48,1010.75,2031.96,2641.97,2542.42,2872.03,600.02,593.30,38.28,0000 0000 0000 0000 000000
2017-05-15 08:54:21,0.03,2.24,0.00,22.59,26.62,30.26,14.50,49.45,1010.75,2031.95,2641.21,2542.02,2871.96,599.92,593.22,38.33,0000 0000 0000 0000 000000
2017-05-15 08:59:23,0.02,2.24,0.00,22.56,26.62,30.27,14.48,49.36,1010.76,2031.96,2640.86,2542.00,2871.27,600.03,593.58,38.39,0000 0000 0000 0000 000000
2017-05-15 09:04:24,0.02,2.24,0.00,22.55,26.61,30.26,14.49,49.41,1010.76,2031.99,2640.08,2541.96,2870.99,600.57,594.05,38.44,0000 0000 0000 0000 000000
2017-05-15 09:09:25,0.04,2.24,0.00,22.54,26.60,30.28,14.52,49.59,1010.77,2031.99,2639.69,2541.65,2870.72,600.34,593.81,38.49,0000 0000 0000 0000 000000
2017-05-15 09:14:26,0.03,2.24,0.00,22.51,26.60,30.25,14.52,49.65,1010.78,2031.98,2639.03,2541.07,2870.03,599.57,593.16,38.54,0000 0000 0000 0000 000000
2017-05-15 09:19:27,0.02,2.24,0.00,22.50,26.58,30.25,14.50,49.54,1010.80,2031.99,2638.35,2541.00,2869.93,599.93,593.53,38.59,0000 0000 0000 0000 000000
2017-05-15 09:24:28,0.02,2.24,0.00,22.47,26.57,30.25,14.49,49.64,1010.88,2031.99,2637.95,2540.95,2869.14,600.06,593.79,38.64,0000 0000 0000 0000 000000
2017-05-15 09:29:30,0.05,2.25,0.00,22.47,26.57,30.19,14.50,49.60,1010.95,2031.99,2637.15,2540.32,2868.96,599.93,593.68,38.69,0000 0000 0000 0000 000000
2017-05-15 09:34:31,0.02,2.25,0.00,22.43,26.57,30.20,14.60,49.68,1011.19,2031.99,2636.74,2540.01,2868.28,600.32,594.28,38.74,0000 0000 0000 0000 000000
2017-05-15 09:39:32,0.01,2.25,0.00,22.42,26.56,30.20,14.48,49.42,1011.24,2031.99,2636.00,2539.99,2867.99,599.68,593.79,38.79,0000 0000 0000 0000 000000
2017-05-15 09:44:34,0.04,2.25,0.00,22.41,26.55,30.22,14.55,49.55,1011.24,2031.99,2635.20,2539.78,2867.45,600.01,594.09,38.84,0000 0000 0000 0000 000000
2017-05-15 09:49:35,0.04,2.25,0.00,22.38,26.55,30.20,14.54,49.64,1011.24,2031.99,2634.66,2539.11,2866.99,599.80,593.87,38.89,0000 0000 0000 0000 000000
2017-05-15 09:54:36,0.02,2.26,0.00,22.38,26.55,30.21,14.50,49.60,1011.24,2031.99,2633.99,2539.00,2866.40,600.32,594.34,38.94,0000 0000 0000 0000 000000
2017-05-15 09:59:37,0.03,2.26,0.00,22.36,26.53,30.19,14.56,49.65,1011.24,2032.00,2633.16,2538.79,2865.99,600.15,594.16,38.99,0000 0000 0000 0000 000000
2017-05-15 10:04:39,0.03,2.26,0.00,22.36,26.52,30.17,14.51,49.68,1011.24,2032.00,2632.78,2538.18,2865.59,599.61,593.78,39.04,0000 0000 0000 0000 000000
2017-05-15 10:09:40,0.02,2.26,0.00,22.34,26.52,30.17,14.49,49.56,1011.25,2032.00,2632.03,2538.01,2865.02,599.93,594.22,39.09,0000 0000 0000 0000 000000
2017-05-15 10:14:41,0.04,2.26,0.00,22.32,26.51,30.14,14.58,49.68,1011.24,2032.00,2631.25,2537.94,2864.51,600.00,594.19,39.14,0000 0000 0000 0000 000000
2017-05-15 10:19:43,0.04,2.26,0.00,22.29,26.50,30.13,14.47,49.67,1011.26,2032.00,2630.74,2537.40,2864.01,599.56,593.91,39.19,0000 0000 0000 0000 000000
2017-05-15 10:24:44,0.03,2.27,0.00,22.24,26.50,30.08,14.52,49.57,1011.26,2032.01,2630.02,2537.04,2863.69,599.92,594.35,39.24,0000 0000 0000 0000 000000
2017-05-15 10:29:45,0.03,2.27,0.00,22.21,26.48,30.14,14.54,49.63,1011.27,2032.01,2629.42,2537.00,2863.03,599.82,594.22,39.29,0000 0000 0000 0000 000000
2017-05-15 10:34:46,0.01,2.27,0.00,22.18,26.47,30.11,14.54,49.65,1011.39,2032.02,2628.84,2536.90,2862.77,599.77,594.36,39.35,0000 0000 0000 0000 000000
2017-05-15 10:39:47,0.06,2.27,0.00,22.18,26.46,30.14,14.55,49.63,1011.56,2032.02,2628.04,2536.18,2862.05,600.32,594.98,39.40,0000 0000 0000 0000 000000
2017-05-15 10:44:49,0.02,2.27,0.00,22.15,26.45,30.15,14.59,49.73,1011.34,2032.03,2627.42,2536.00,2861.86,600.10,594.69,39.45,0000 0000 0000 0000 000000
2017-05-15 10:49:49,0.03,2.27,0.00,22.13,26.44,30.18,14.61,49.76,1011.43,2032.05,2626.81,2536.00,2861.11,600.03,594.72,39.50,0000 0000 0000 0000 000000
2017-05-15 10:54:51,0.03,2.28,0.00,22.13,26.42,30.13,14.54,49.81,1011.60,2032.12,2626.05,2535.86,2860.96,599.85,594.65,39.55,0000 0000 0000 0000 000000
2017-05-15 10:59:52,0.06,2.28,0.00,22.12,26.41,30.10,14.60,49.88,1011.67,2032.13,2625.45,2535.17,2860.21,599.74,594.70,39.60,0000 0000 0000 0000 000000
2017-05-15 11:04:53,0.07,2.28,0.00,22.08,26.40,30.03,14.58,49.61,1011.62,2032.60,2625.00,2535.02,2860.00,600.05,594.93,39.65,0000 0000 0000 0000 000000
2017-05-15 11:09:54,0.03,2.28,0.00,22.06,26.38,30.04,14.53,49.77,1011.36,2032.80,2624.35,2535.00,2859.78,599.56,594.35,39.70,0000 0000 0000 0000 000000
2017-05-15 11:14:55,0.03,2.29,0.00,22.02,26.37,30.04,14.60,49.98,1011.25,2032.91,2623.94,2534.95,2859.07,599.96,594.87,39.75,0000 0000 0000 0000 000000
2017-05-15 11:19:57,0.05,2.29,0.00,21.98,26.35,30.05,14.53,49.78,1011.26,2032.97,2623.13,2534.37,2858.93,599.74,594.79,39.80,0000 0000 0000 0000 000000
2017-05-15 11:24:58,0.02,2.29,0.00,21.93,26.34,30.02,14.56,49.83,1011.26,2032.98,2622.90,2534.02,2858.25,599.93,594.90,39.85,0000 0000 0000 0000 000000
2017-05-15 11:29:59,0.01,2.29,0.00,21.90,26.32,29.99,14.56,49.60,1011.42,2032.99,2622.09,2534.00,2857.99,599.87,595.06,39.90,0000 0000 0000 0000 000000
2017-05-15 11:35:00,0.01,2.29,0.00,21.88,26.30,29.96,14.56,49.62,1011.70,2032.99,2621.83,2533.96,2857.77,599.73,595.08,39.95,0000 0000 0000 0000 000000
2017-05-15 11:40:02,0.03,2.29,0.00,21.86,26.28,29.92,14.61,49.70,1011.73,2032.99,2621.06,2533.81,2857.08,600.02,595.45,40.00,0000 0000 0000 0000 000000
2017-05-15 11:45:03,0.03,2.30,0.00,21.84,26.26,29.87,14.61,49.71,1011.73,2032.99,2620.64,2533.19,2856.99,599.96,595.48,40.05,0000 0000 0000 0000 000000
2017-05-15 11:50:04,0.02,2.30,0.00,21.81,26.24,29.89,14.53,49.65,1011.73,2033.00,2620.01,2533.01,2856.44,599.60,595.12,40.10,0000 0000 0000 0000 000000
2017-05-15 11:55:06,0.02,2.30,0.00,21.77,26.22,29.87,14.56,49.75,1011.74,2033.00,2619.51,2533.00,2856.01,600.00,595.66,40.15,0000 0000 0000 0000 000000
2017-05-15 12:00:07,0.01,2.30,0.00,21.74,26.20,29.87,14.61,49.77,1011.73,2033.04,2619.00,2532.97,2855.99,600.19,595.67,40.20,0000 0000 0000 0000 000000
2017-05-15 12:05:09,0.04,2.30,0.00,21.70,26.17,29.91,14.64,49.73,1011.73,2033.04,2618.27,2532.70,2855.49,600.08,595.87,40.26,0000 0000 0000 0000 000000
2017-05-15 12:10:10,0.06,2.30,0.00,21.71,26.15,29.87,14.61,49.77,1011.73,2033.27,2617.97,2532.16,2855.03,599.77,595.53,40.31,0000 0000 0000 0000 000000
2017-05-15 12:15:11,0.03,2.31,0.00,21.68,26.13,29.83,14.64,49.86,1011.73,2033.48,2617.21,2532.01,2854.98,599.80,595.63,40.36,0000 0000 0000 0000 000000
2017-05-15 12:20:12,0.05,2.31,0.00,21.66,26.11,29.84,14.57,49.65,1011.74,2033.77,2616.90,2532.00,2854.47,599.88,595.75,40.41,0000 0000 0000 0000 000000
2017-05-15 12:25:13,0.03,2.31,0.00,21.63,26.08,29.81,14.61,49.66,1011.74,2033.92,2616.12,2531.99,2854.02,600.04,595.97,40.46,0000 0000 0000 0000 000000
2017-05-15 12:30:15,0.00,2.31,0.00,21.63,26.06,29.75,14.58,49.82,1011.74,2033.97,2615.96,2531.97,2853.99,599.77,595.72,40.51,0000 0000 0000 0000 000000
2017-05-15 12:35:16,0.04,2.31,0.00,21.60,26.04,29.65,14.65,49.73,1011.75,2033.98,2615.19,2531.64,2853.71,599.97,596.03,40.56,0000 0000 0000 0000 000000
2017-05-15 12:40:17,0.02,2.31,0.00,21.57,26.01,29.61,14.61,49.66,1011.74,2033.99,2614.97,2531.12,2853.07,600.14,596.05,40.61,0000 0000 0000 0000 000000
2017-05-15 12:45:19,0.02,2.32,0.00,21.53,26.00,29.63,14.64,49.55,1011.86,2033.99,2614.21,2531.01,2853.00,599.98,596.20,40.66,0000 0000 0000 0000 000000
2017-05-15 12:50:20,0.00,2.32,0.00,21.49,25.97,29.68,14.62,49.64,1012.08,2033.99,2613.98,2531.00,2852.91,599.88,596.29,40.71,0000 0000 0000 0000 000000
2017-05-15 12:55:21,0.03,2.32,0.00,21.45,25.94,29.65,14.72,49.75,1012.03,2033.99,2613.36,2531.00,2852.41,600.28,596.75,40.76,0000 0000 0000 0000 000000